Temp_Advection
nan nan nan nan nan nan nan nan nan nan nan nan nan nan nan nan nan nan nan nan nan nan nan nan nan nan nan nan nan nan nan nan nan nan nan nan nan nan nan nan nan nan nan nan
nan -1 -1 -1 -1 -1 -1 -0 -0 -0 0 -0 -0 -0 -0 -0 0 -0 0 0 0 -0 0 -0 -0 -0 -0 -0 -0 -0 -0 -0 0 0 -0 0 -0 -0 0 0 -0 0 -0 nan
nan -1 -1 -1 -1 -0 -1 0 -0 -1 -1 -0 -0 0 0 -0 0 0 0 0 0 0 0 -0 -0 -0 0 -0 0 0 -0 -1 -0 -0 -0 0 -0 0 0 0 0 -0 -1 nan
nan -1 -1 -1 -1 -0 -0 -0 0 -0 -0 -0 -0 -0 -0 0 0 0 0 0 0 0 0 0 0 0 0 0 -0 0 -0 -0 -0 -0 0 -0 -0 0 0 0 -0 -0 -0 nan
nan -1 -1 -1 -1 -1 -0 0 -0 -0 -0 0 0 -0 -0 0 -0 0 0 0 0 0 0 0 0 -0 -0 -0 -0 -0 -0 -0 -0 -1 -0 0 0 -0 -0 -0 -0 -0 0 nan
nan -0 -1 -1 -1 -1 -0 -0 0 -0 -0 -0 0 -0 -0 0 -0 0 -0 -0 0 0 -0 0 -0 0 -0 -0 -0 -0 -0 -0 0 -0 -0 -0 -0 0 -0 -0 -0 0 0 nan
nan -0 -0 -0 -0 -0 -0 -0 0 0 0 -0 0 0 0 0 0 0 0 0 0 -0 0 -0 0 -0 -0 -0 -0 -0 -0 -0 -0 -0 -0 -0 -0 -0 -0 -0 -0 0 -0 nan
nan -0 0 -0 -0 -0 -0 -0 0 0 0 -0 0 -0 0 0 0 0 0 0 0 0 0 -0 -0 -0 0 -0 0 0 -0 -0 -0 0 -0 -0 -0 0 0 0 -0 0 0 nan
nan 0 -0 -0 0 0 -0 -0 0 0 0 -0 -0 -0 -0 -0 0 0 0 0 0 0 -0 0 -0 -0 -0 0 -0 -0 0 -0 -0 0 -0 0 0 -0 -0 -0 -0 -0 -0 nan
nan 0 -0 -1 0 0 -0 -0 0 0 -0 -0 0 -0 -0 -0 -0 -0 -0 0 0 0 0 -0 -0 0 -0 -0 -0 0 0 -0 -0 -0 0 -0 0 0 0 1 0 -0 0 nan
nan 0 1 -0 -0 1 -0 -0 0 0 -0 -0 0 -0 -0 -0 -0 -0 -0 -0 -0 -0 -0 -0 -0 0 0 -0 0 0 -0 -0 -0 -0 0 0 0 0 0 0 0 0 0 nan
nan 0 1 1 1 0 -0 -0 -0 0 0 -0 -0 0 -0 -0 0 -0 -1 0 -0 -1 -0 -0 -0 0 0 -0 0 -0 -0 0 0 0 0 -0 -0 0 -0 -0 -0 -0 0 nan
nan 0 0 0 1 0 0 0 0 0 -0 -0 -0 -0 0 1 1 0 -0 -0 -0 0 -0 -0 0 0 -0 0 -0 0 0 0 0 -0 -0 -0 -1 -0 0 -0 0 0 0 nan
nan 0 0 0 1 1 1 1 0 0 0 0 -0 0 0 0 1 1 1 0 0 0 0 -0 0 -0 0 0 0 0 0 -0 -0 -0 -1 -1 -1 -1 -0 1 1 0 0 nan
nan 0 0 0 0 1 1 1 2 0 1 0 -0 -0 -0 0 1 1 1 1 1 0 -0 -0 -0 -0 -0 0 -0 -0 -1 -1 -1 -1 -0 0 -0 -0 0 0 1 1 1 nan
nan -1 -0 0 0 1 2 1 -0 0 1 0 0 0 1 1 1 1 1 1 1 0 0 -0 -0 0 -0 0 -0 -1 -3 -2 -1 1 0 -1 -1 -0 0 1 1 1 1 nan
nan -1 -1 -1 0 1 1 -0 0 1 1 0 -0 0 -0 0 0 0 0 0 0 0 0 0 0 0 0 0 -1 -1 -1 1 1 1 1 -0 -1 -0 0 0 0 1 1 nan
nan -2 -2 -0 -1 2 2 1 1 1 -0 -0 0 -0 -0 -0 0 0 0 0 0 -0 -0 0 0 0 0 -0 -2 -2 0 -0 -0 -0 0 1 -0 -0 0 0 0 0 1 nan
nan -0 -1 -1 1 0 1 2 1 1 0 -0 0 -0 0 -1 -0 -0 0 0 -0 -0 -0 -0 0 0 -0 -1 -1 -0 -0 -0 -0 -0 -0 1 1 -1 -1 -0 0 0 1 nan
nan -0 -0 0 0 0 0 0 0 0 0 0 0 -1 0 0 -0 -0 -0 0 -0 0 0 0 0 -0 -2 -0 1 0 0 0 0 -0 -0 -0 0 -0 -0 0 0 0 0 nan
nan 0 0 0 1 0 -0 -0 -0 -0 0 0 0 0 -1 0 -0 0 0 -0 0 0 0 0 -0 -0 0 0 0 -0 -0 0 1 -1 -1 0 -0 0 0 0 0 0 -0 nan
nan 0 -0 0 -0 0 -0 -0 0 0 0 -0 -0 -0 -0 0 -0 -0 0 0 0 0 -0 -0 -0 -0 0 0 -0 -0 -0 -0 0 -0 -0 -0 -0 -0 -0 -0 -0 0 0 nan
nan -0 -0 0 0 -0 -0 -0 0 0 -0 0 0 0 0 0 0 -0 -0 0 0 -0 0 -0 0 0 0 0 -0 -0 -0 -0 0 0 -0 -0 -0 0 0 0 -0 0 0 nan
nan -0 -0 0 -0 -0 0 0 0 0 -0 -0 -0 -0 0 0 0 0 0 0 -0 0 -0 -0 0 -0 0 0 0 0 -0 0 0 0 0 -0 -0 0 0 0 0 0 0 nan
nan -0 0 -0 -0 -0 0 0 -0 0 1 -0 -0 0 0 -0 -0 0 -0 0 -0 -0 -0 0 -0 0 0 0 0 0 0 0 0 0 0 -0 0 0 0 0 0 0 0 nan
nan -0 -0 -0 -0 -0 -0 0 0 0 0 -0 -0 -0 -0 -0 -0 -0 -0 -0 -0 0 -0 -0 -0 -0 0 0 0 0 0 0 0 0 -0 -0 0 -0 -0 -0 -0 -0 -0 nan
nan nan nan nan nan nan nan nan nan nan nan nan nan nan nan nan nan nan nan nan nan nan nan nan nan nan nan nan nan nan nan nan nan nan nan nan nan nan nan nan nan nan nan nan
Wind_Speed
19 20 22 26 28 30 23 6 3 12 5 4 4 2 2 2 3 2 1 2 1 3 1 3 2 3 2 4 4 4 4 3 4 7 1 3 3 4 7 3 4 2 4 5
19 19 19 22 25 28 26 6 4 8 1 2 2 3 3 2 4 4 4 4 2 2 2 2 4 5 1 2 2 1 5 4 4 3 2 4 4 5 5 6 3 6 5 5
20 19 18 18 21 23 20 7 2 5 10 5 2 3 3 4 3 2 3 2 3 4 5 4 2 4 1 2 3 3 2 4 3 7 2 6 7 8 6 3 4 3 8 2
20 19 18 17 18 20 14 4 1 1 2 4 3 3 1 1 3 3 4 4 3 3 3 4 4 2 2 4 2 1 2 3 4 6 1 4 3 8 9 10 6 6 3 6
20 19 18 17 16 16 10 4 2 2 3 3 1 1 4 4 2 3 2 2 2 1 3 1 2 1 2 2 5 3 4 1 5 4 5 3 6 8 9 15 11 11 10 14
21 20 19 16 15 13 5 6 2 1 4 3 1 2 2 4 4 5 1 1 1 4 2 2 1 1 2 2 1 3 2 1 1 4 6 6 7 10 10 6 9 12 10 12
23 22 20 17 14 11 8 8 6 2 2 2 4 3 3 4 5 1 2 4 1 1 0 2 1 3 5 6 5 3 1 1 0 2 3 5 6 2 1 13 15 11 7 4
22 26 22 19 15 13 10 8 6 4 3 4 2 4 3 4 3 3 4 7 6 4 2 1 1 1 1 4 5 5 4 2 3 4 6 6 5 4 6 7 11 10 9 8
23 22 22 22 20 16 14 11 11 6 2 6 4 5 7 3 3 0 3 4 7 5 2 2 3 4 3 2 3 3 4 4 2 2 5 7 3 1 1 2 5 3 1 7
27 25 22 22 23 21 17 17 12 8 5 9 11 5 5 8 3 1 4 5 4 5 1 2 4 3 1 5 6 6 3 3 9 8 6 7 3 5 4 5 5 2 2 1
30 29 27 25 25 25 21 22 16 16 7 13 14 14 9 7 7 4 8 5 2 2 2 2 3 1 2 1 3 6 7 8 5 3 6 8 8 4 7 3 2 3 6 10
30 30 29 27 25 25 23 25 21 17 16 9 9 11 16 18 13 9 16 2 4 10 3 1 1 2 2 2 3 2 3 5 4 7 5 1 17 0 7 4 1 2 3 6
30 31 30 30 29 29 29 26 24 17 14 19 24 21 23 24 21 18 8 8 8 6 5 2 1 3 3 3 5 3 4 4 3 3 6 11 17 16 18 11 9 7 7 7
32 31 31 31 31 32 35 33 29 22 6 4 7 13 13 12 15 24 23 11 9 6 7 2 2 2 1 3 3 3 1 4 4 7 8 13 22 21 24 22 18 16 12 11
31 33 32 30 31 31 37 36 33 27 20 3 2 9 13 11 12 16 19 16 12 6 4 2 3 3 0 2 2 4 9 7 5 9 4 7 2 3 6 23 23 21 18 16
36 25 27 33 32 29 39 23 38 31 30 6 3 5 9 10 11 10 10 12 11 7 6 3 4 4 4 3 4 7 20 31 36 16 12 12 13 15 10 10 15 17 19 18
29 37 28 23 35 39 39 15 13 26 33 10 3 3 2 9 9 8 9 11 4 5 5 5 4 5 8 2 4 4 16 20 22 25 25 18 23 14 12 13 13 13 15 16
22 24 37 30 13 40 38 33 21 30 26 11 3 2 4 10 5 4 6 5 5 6 3 4 4 4 5 5 11 24 17 17 18 19 21 25 20 13 11 13 13 12 14 16
18 20 20 21 24 8 13 24 32 39 14 10 6 5 4 13 4 6 5 6 2 7 3 3 6 4 7 9 10 8 8 7 10 13 15 15 19 18 17 12 11 13 13 15
14 15 3 2 3 5 20 18 9 5 7 5 3 11 4 11 7 6 6 5 2 2 4 5 3 5 17 30 19 14 18 19 21 17 9 9 13 16 18 18 14 10 9 11
6 2 0 11 22 8 3 5 5 5 3 7 8 10 5 11 3 3 6 3 3 2 3 3 3 4 4 5 6 7 11 13 11 17 15 5 1 5 3 1 7 11 11 9
8 4 11 16 5 4 3 4 3 3 3 3 2 5 8 8 6 4 5 4 3 4 6 1 4 3 4 1 3 4 6 5 6 12 12 11 10 11 10 10 8 6 9 10
12 5 5 4 3 3 4 6 2 2 5 9 8 3 7 5 4 5 3 5 4 8 2 4 4 6 5 3 3 4 4 3 3 2 4 7 8 7 5 4 4 5 7 9
5 8 4 4 3 4 3 4 4 6 6 16 15 7 3 4 3 3 4 3 3 3 4 6 2 7 8 8 8 8 11 12 11 11 10 9 7 5 4 4 2 2 2 3
5 6 4 5 4 3 3 7 7 6 18 20 10 6 4 2 3 2 3 3 5 6 4 2 8 11 12 11 11 11 12 12 12 12 12 12 11 9 8 6 3 2 0 1
7 4 3 4 4 3 3 7 6 12 18 11 3 3 4 4 4 4 7 6 7 2 2 7 12 11 9 11 9 9 9 9 9 8 9 8 8 7 7 6 5 5 5 6
7 4 11 13 4 7 8 11 10 21 18 2 2 4 5 3 3 4 4 3 2 7 11 12 11 11 9 7 6 6 6 6 6 6 6 7 8 7 6 5 6 7 7 8
Wind_Direction
330 336 341 344 350 355 356 352 303 343 2 54 45 96 113 159 143 147 170 309 231 274 182 288 286 265 199 36 321 334 11 282 159 204 45 11 317 270 201 148 227 246 150 258
322 329 335 340 347 350 349 325 299 334 231 95 107 154 129 195 180 162 175 192 209 186 269 260 227 244 83 16 120 38 353 247 125 172 282 180 235 261 272 305 305 218 140 250
314 321 327 335 340 347 347 330 5 2 49 41 40 141 154 162 192 171 193 197 160 194 218 216 243 223 189 342 351 324 285 279 242 193 225 177 200 202 258 222 266 219 223 26
305 311 319 328 335 343 341 18 359 45 355 24 13 4 59 143 205 228 202 195 220 185 194 189 209 154 215 192 344 260 310 255 347 306 59 349 289 202 204 221 231 241 251 256
295 300 308 318 328 336 333 328 121 91 131 121 15 269 217 199 151 173 232 225 146 190 194 190 151 73 49 28 332 8 334 295 351 294 238 225 266 273 233 221 229 249 242 272
292 294 296 303 315 334 326 339 335 200 150 148 143 232 200 218 131 185 268 18 211 206 264 136 101 217 283 310 359 340 342 268 155 261 13 14 290 216 232 242 226 221 218 231
283 286 283 287 299 310 319 322 306 243 276 197 207 173 180 206 197 199 118 177 165 106 157 314 285 245 249 247 248 218 269 239 186 262 51 245 255 26 33 231 235 229 232 184
293 286 274 274 276 281 288 291 289 245 251 205 200 178 187 174 185 213 211 204 195 186 147 236 253 192 340 233 223 185 232 304 228 227 207 298 311 217 186 177 259 223 224 180
271 277 279 267 264 264 270 270 266 247 193 233 196 157 182 189 184 264 222 210 205 183 234 175 215 217 173 207 176 249 178 256 274 164 229 222 251 130 26 29 289 10 15 165
270 268 269 275 264 257 258 258 250 240 241 257 211 190 182 173 169 129 141 170 161 176 233 243 218 233 101 188 186 172 180 199 221 232 245 286 245 156 133 119 238 101 105 160
268 264 264 261 263 255 252 256 250 237 241 261 250 235 199 176 182 168 150 113 209 136 174 214 247 243 201 290 176 176 176 171 195 191 219 267 143 98 174 207 122 151 138 149
267 267 264 257 252 257 251 249 248 245 236 264 260 257 247 235 234 204 181 245 175 175 162 225 359 253 136 235 262 325 238 207 187 198 214 197 199 97 222 188 217 215 201 169
263 261 258 260 251 246 249 246 245 237 247 268 262 264 254 245 237 229 192 214 196 196 169 131 182 215 128 209 239 208 246 160 214 48 252 230 236 238 246 246 236 234 227 211
268 260 257 254 256 245 244 245 240 226 226 264 237 244 243 249 234 226 221 221 186 177 170 132 169 193 155 249 249 214 170 130 207 259 279 285 273 247 249 246 238 233 225 221
264 262 258 257 249 248 239 245 246 224 208 234 296 293 272 252 235 225 219 219 210 169 145 136 212 222 121 216 26 233 191 192 192 252 240 236 289 301 263 237 247 239 229 222
263 267 256 256 251 236 216 214 225 230 211 225 261 236 230 226 211 203 196 202 193 180 160 194 235 218 180 243 239 246 214 226 236 249 272 282 273 290 284 248 245 246 241 237
271 257 265 266 245 230 202 208 224 211 197 178 233 187 117 128 148 159 166 182 186 163 178 222 227 199 198 235 238 227 245 253 256 258 267 277 267 260 265 254 248 243 239 235
291 285 260 261 287 234 212 212 184 175 172 168 222 117 150 161 143 123 153 156 169 203 230 201 211 166 218 252 248 254 269 281 276 272 273 270 264 260 261 260 253 244 235 226
291 297 298 278 255 253 224 196 163 170 166 176 186 172 183 156 134 134 151 167 170 185 231 220 182 197 223 233 244 260 291 280 288 303 300 275 252 243 247 258 256 243 236 222
282 301 256 236 219 209 169 140 178 180 199 189 184 151 161 150 152 170 137 180 210 200 221 165 228 255 244 252 256 258 268 272 272 276 281 273 262 249 244 249 248 256 255 235
249 240 142 140 147 132 136 144 176 202 222 200 188 170 129 174 138 143 191 169 156 222 218 170 247 255 225 231 259 278 286 290 263 252 244 248 107 67 103 211 243 241 246 243
186 174 128 160 203 174 163 190 177 199 222 105 91 88 118 137 149 118 175 171 156 238 137 123 257 250 136 203 296 317 316 303 249 230 231 238 257 283 281 269 263 257 236 233
156 147 144 178 177 234 219 166 132 220 152 168 156 104 121 130 165 102 160 165 208 123 185 231 238 131 125 91 104 56 47 70 103 175 238 260 268 268 263 255 251 237 225 229
156 152 164 194 196 245 184 171 171 156 157 150 137 113 128 140 169 136 166 152 119 216 231 230 210 140 132 113 105 101 83 78 77 75 72 70 77 107 135 169 190 204 225 222
153 170 210 199 207 65 115 133 124 131 156 146 109 87 130 161 127 193 101 152 225 213 234 181 130 137 132 119 106 96 90 83 79 74 71 69 70 75 77 74 67 64 97 253
164 204 131 113 136 142 174 172 151 162 152 134 114 152 166 189 168 167 209 176 218 232 45 117 134 127 125 117 109 94 86 78 70 62 55 48 44 43 39 30 18 4 348 334
185 186 206 177 154 162 183 197 187 169 149 181 164 204 209 90 191 219 195 220 29 110 103 122 133 135 130 120 108 96 78 64 54 46 40 34 28 24 15 355 348 339 326 313
Height
1496 1492 1488 1483 1477 1470 1464 1463 1463 1457 1454 1456 1461 1467 1469 1473 1474 1476 1476 1477 1476 1475 1472 1469 1468 1464 1463 1464 1465 1464 1459 1463 1458 1454 1444 1443 1446 1445 1443 1457 1453 1452 1453 1452
1493 1490 1487 1482 1477 1471 1466 1460 1461 1459 1455 1460 1466 1470 1471 1472 1473 1474 1475 1475 1477 1477 1475 1475 1466 1464 1462 1463 1465 1465 1463 1449 1462 1461 1452 1447 1448 1442 1441 1441 1439 1449 1464 1448
1490 1488 1485 1482 1477 1472 1467 1464 1462 1459 1458 1463 1463 1465 1467 1470 1472 1473 1474 1474 1475 1475 1474 1474 1468 1464 1465 1464 1463 1464 1464 1453 1442 1450 1443 1440 1446 1442 1442 1445 1454 1445 1440 1434
1486 1485 1483 1480 1477 1473 1469 1463 1467 1464 1467 1466 1469 1467 1469 1469 1471 1472 1471 1471 1471 1470 1471 1465 1467 1465 1466 1468 1466 1465 1463 1458 1446 1442 1438 1439 1435 1437 1439 1443 1443 1448 1437 1435
1483 1482 1479 1478 1475 1473 1470 1467 1465 1467 1468 1468 1470 1470 1468 1467 1469 1470 1471 1472 1471 1471 1472 1469 1468 1470 1468 1469 1467 1466 1465 1456 1456 1449 1437 1439 1441 1436 1433 1432 1434 1434 1436 1437
1480 1479 1478 1476 1474 1472 1470 1468 1466 1465 1468 1468 1470 1467 1466 1465 1466 1468 1468 1470 1471 1471 1471 1469 1469 1470 1470 1470 1471 1470 1468 1461 1461 1451 1445 1447 1445 1434 1434 1429 1428 1426 1439 1427
1474 1474 1474 1472 1472 1471 1470 1469 1468 1466 1464 1466 1464 1463 1465 1465 1465 1467 1467 1468 1470 1472 1470 1471 1470 1470 1469 1469 1469 1470 1468 1466 1459 1449 1454 1447 1421 1421 1423 1421 1417 1418 1420 1420
1467 1468 1469 1468 1468 1468 1467 1467 1468 1464 1462 1460 1461 1461 1462 1462 1463 1464 1463 1465 1465 1466 1468 1469 1468 1469 1470 1465 1465 1467 1470 1467 1456 1448 1445 1432 1424 1423 1424 1423 1413 1413 1413 1416
1461 1462 1463 1463 1462 1463 1463 1463 1464 1463 1461 1455 1455 1457 1460 1461 1463 1464 1463 1464 1465 1466 1465 1466 1467 1454 1452 1467 1468 1467 1468 1470 1466 1454 1443 1444 1415 1421 1422 1420 1428 1409 1410 1413
1454 1455 1455 1456 1457 1457 1458 1458 1459 1459 1457 1452 1453 1452 1453 1454 1457 1458 1460 1462 1464 1467 1468 1469 1459 1449 1455 1456 1458 1466 1466 1466 1461 1452 1443 1441 1419 1421 1423 1432 1418 1413 1414 1414
1446 1446 1447 1448 1449 1450 1452 1452 1453 1455 1453 1448 1447 1447 1447 1448 1451 1455 1458 1462 1463 1465 1470 1466 1456 1458 1455 1453 1446 1450 1450 1455 1457 1454 1445 1448 1420 1425 1426 1417 1415 1415 1416 1416
1436 1438 1439 1440 1441 1442 1445 1445 1447 1449 1449 1445 1442 1442 1443 1443 1444 1446 1450 1449 1448 1449 1454 1456 1455 1457 1459 1455 1452 1448 1448 1435 1435 1434 1429 1419 1418 1416 1414 1415 1415 1416 1417 1418
1427 1428 1430 1432 1433 1434 1435 1438 1440 1443 1444 1440 1436 1435 1436 1437 1438 1440 1443 1444 1443 1445 1445 1448 1451 1456 1449 1456 1450 1437 1437 1435 1437 1432 1415 1413 1413 1413 1414 1414 1414 1414 1416 1417
1417 1418 1420 1422 1424 1425 1425 1426 1431 1438 1440 1438 1430 1430 1431 1430 1431 1434 1435 1437 1439 1442 1444 1447 1451 1454 1443 1446 1439 1438 1433 1433 1432 1427 1413 1411 1407 1406 1406 1409 1411 1411 1412 1414
1406 1408 1410 1412 1414 1417 1417 1418 1420 1426 1435 1431 1429 1427 1426 1427 1427 1429 1431 1434 1436 1438 1442 1445 1448 1443 1445 1439 1441 1430 1423 1420 1424 1408 1404 1403 1401 1401 1400 1403 1403 1406 1408 1410
1398 1398 1396 1401 1403 1409 1408 1412 1410 1415 1423 1431 1429 1424 1421 1423 1425 1427 1431 1432 1433 1436 1438 1441 1439 1437 1440 1443 1433 1405 1401 1402 1401 1399 1400 1401 1401 1402 1402 1401 1402 1403 1404 1406
1388 1389 1391 1390 1391 1392 1392 1394 1396 1402 1414 1423 1424 1418 1420 1423 1424 1426 1430 1431 1433 1435 1437 1437 1435 1435 1435 1433 1425 1395 1396 1396 1398 1398 1399 1398 1397 1398 1399 1399 1400 1401 1402 1403
1382 1381 1380 1384 1384 1380 1380 1382 1388 1395 1405 1413 1412 1414 1421 1421 1423 1427 1428 1431 1434 1434 1433 1432 1431 1432 1430 1421 1395 1389 1391 1393 1393 1393 1393 1393 1394 1395 1394 1395 1397 1398 1399 1400
1378 1376 1375 1375 1378 1376 1373 1377 1381 1384 1394 1398 1401 1401 1411 1418 1421 1424 1427 1428 1430 1430 1429 1427 1427 1421 1415 1393 1386 1387 1388 1388 1388 1388 1388 1387 1387 1389 1390 1392 1393 1394 1396 1397
1374 1375 1373 1371 1371 1376 1380 1385 1387 1385 1382 1386 1388 1391 1403 1409 1415 1419 1423 1424 1423 1424 1422 1423 1421 1402 1387 1381 1382 1381 1382 1383 1383 1384 1384 1383 1383 1384 1385 1387 1390 1391 1393 1395
1371 1372 1373 1373 1376 1378 1381 1383 1385 1385 1382 1382 1381 1385 1397 1405 1409 1412 1415 1418 1420 1420 1418 1421 1412 1392 1377 1376 1377 1377 1377 1376 1376 1378 1380 1381 1381 1381 1382 1384 1385 1387 1390 1392
1368 1370 1373 1377 1376 1375 1378 1380 1379 1379 1379 1381 1381 1384 1389 1399 1402 1406 1412 1412 1417 1416 1415 1422 1406 1380 1375 1375 1376 1376 1375 1374 1374 1375 1377 1378 1379 1380 1381 1382 1383 1385 1386 1389
1365 1369 1372 1374 1374 1374 1370 1372 1375 1377 1378 1378 1379 1384 1389 1398 1399 1402 1406 1408 1413 1411 1414 1404 1384 1375 1376 1376 1375 1376 1376 1375 1374 1375 1375 1376 1376 1377 1378 1380 1381 1383 1384 1386
1361 1364 1370 1371 1371 1368 1363 1365 1366 1369 1370 1374 1378 1384 1389 1393 1396 1397 1401 1401 1406 1409 1407 1386 1372 1373 1375 1376 1377 1377 1376 1375 1375 1375 1375 1376 1376 1377 1378 1379 1381 1382 1384 1385
1358 1360 1361 1364 1360 1361 1361 1362 1364 1366 1369 1373 1378 1383 1387 1389 1393 1394 1399 1401 1398 1393 1378 1369 1372 1374 1374 1376 1377 1378 1377 1377 1377 1378 1378 1379 1379 1380 1380 1381 1381 1382 1383 1385
1353 1354 1356 1356 1358 1361 1362 1363 1365 1366 1370 1374 1376 1379 1381 1381 1382 1390 1386 1385 1378 1367 1369 1371 1372 1376 1379 1377 1378 1379 1379 1379 1379 1380 1380 1381 1382 1381 1381 1382 1383 1383 1383 1384
1345 1346 1347 1350 1350 1352 1356 1359 1361 1366 1371 1372 1373 1375 1373 1375 1377 1377 1371 1371 1370 1370 1373 1372 1373 1376 1380 1380 1380 1380 1380 1380 1381 1381 1381 1381 1382 1382 1382 1383 1382 1382 1382 1383